User: anonymous   Login
Location: Pabrico
(37.5827°N, 122.0063°W)
Time: 19:51:41
(UTC+00:00)
Language:

SL-16 R/B - Orbit

View from above orbital plane
View from above orbital plane
View from above satellite
View from above satellite

Ground track
Ground track

The orbit data is extracted from the following two-line orbital elements,

1 28353U 04021B   24166.33504085  .00000372  00000-0  21913-3 0  9996
2 28353  71.0005 121.4719 0007168 277.5421  82.4886 14.14422438 33275
Epoch (UTC): 14 June 2024 08:02:27
Eccentricity: 0.0007168
inclination: 71.0005°
perigee height: 839 km
apogee height: 849 km
right ascension of ascending node: 121.4719°
argument of perigee: 277.5421°
revolutions per day: 14.14422438
mean anomaly at epoch: 82.4886°
orbit number at epoch: 3327

The dashed part of the orbit path shows where the satellite is in the earth's shadow,  

DLR